Погода в Сибиряке

Россия / Тюменская область     58°08′49″N   68°27′54″E
темп.,
°C
ветер,
м/с
пор.,
м/с
влажн.,
%
обл.,
%
осадки,
мм/ч
давл.,
гПа
погр.,
м
8 августа, пн
пн823:00+19св2364100 0.0 101760
02:00+16св227399 0.0 101831
05:00+15св2277100 0.0 101833
08:00+21св246099 0.0 1019309
11:00+24св3547100 0.0 10181286
14:00+27св454381 0.0 10181777
17:00+26св454493 0.0 10171776
20:00+20св377119 0.0 1018152
9 августа, вт
вт923:00+18всв257412 0.0 101889
02:00+16всв22830 0.0 101828
05:00+15ссв22840 0.0 101822
08:00+21св236276 0.0 1019313
11:00+26св23475 0.0 10181323
14:00+28ссв23390 0.0 10172139
17:00+28с333922 0.0 10162146
20:00+22с22593 0.0 101623
10 августа, ср
ср1023:00+20с24665 0.0 101669
02:00+17с22865 0.0 101633
05:00+16с25937 0.0 1016117
08:00+22св24708 0.0 1017362
11:00+26ссв455026 0.0 10171140
14:00+28св46435 0.0 10161990
17:00+28св454412 0.0 10162014
20:00+22св410635 0.0 1017338
11 августа, чт
чт1123:00+18всв411578 0.0 1018310
02:00+15всв3106841 0.0 1018222
05:00+13всв387678 0.0 1019159
08:00+18в475894 0.0 1019361
11:00+23вюв344129 0.0 10181125
14:00+26юв32335 0.0 10171515
17:00+26ююв33365 0.0 10161459
20:00+19ююв36635 0.0 1015113
12 августа, пт
пт1223:00+18ююв411645 0.0 1014256
02:00+15ююв311949 1.9 1013241
05:00+15ю399973 4.3 1012271
08:00+17ю269899 1.4 1011251
11:00+16з5896100 4.1 1010607
14:00+21зюз6951100 0.4 10091771
17:00+19з6959100 0.5 10101405
20:00+17з31069100 0.0 1009447